sat.trackr.live / text

‹ back to catalog

STARLINK-33862

NORAD 63709 · 2025-087N

PAYLOAD ACTIVE UNKNOWN

§ Identity

Operator
Country
US
Launch date
2025-04-28
Launch site
AFWTR
Launch vehicle
Mass (kg)
RCS (m²)

Purposes: comms

External: N2YO · Heavens-Above · Gunter

§ Orbital elements

Epoch: 2026-09-20T15:34:54.879456Z

Period
93.85 min
Inclination
53.1594°
Eccentricity
0.0000938
Mean motion
15.34408539 rev/d
Perigee alt
462.0 km
Apogee alt
463.3 km
Semi-major
6,840.8 km
B*
3.7183e-4
RAAN
32.9395°
Arg perigee
92.0705°
Mean anomaly
268.0405°
Rev number
7,906

§ Raw data

STARLINK-338621 63709U 25087N   26263.64924629  .00012210  00000+0  37183-3 0  99982 63709  53.1594  32.9395 0000938  92.0705 268.0405 15.34408539 79067

JSON: /api/v1/satellites/63709 · /tle

For live sub-satellite position, see the globe view (requires WebGL).

§ Visibility from observer

Set your observer location to see the next 7 days of passes ≥ 10°. The values pass through the URL so the page stays shareable.

No JS? Fill the form by hand. The geolocation button needs JavaScript.